カタログに戻る

MOLNIYA 3-8

運用中通信HEO
NORAD 10455·PAYLOAD·🇷🇺 Russia

打ち上げ Oct 28, 1977 から Plesetsk Cosmodrome

Loading…

次のパス (今後24時間)

TLE

最新Source: Space-Track

元期: Sep 12, 2026, 19:16 UTC

1 10455U 77105A   26255.80283984  .00000048  00000-0  00000-0 0  9999
2 10455  63.8038 168.2174 6697524 275.7012  17.3149  2.00796724358207

AllMySatでMOLNIYA 3-8をリアルタイム追跡

Download on the App Store